Eureka, Nunavut

3:30 PM CDT on May 25, 2017 (GMT -0500)
Eureka

Weather History for CWEU - December, 2012

Change the Weather History Date:

Thursday, December 6, 2012

  Actual Average Record
Temperature  
Mean Temperature -24 °F -  
Max Temperature -15 °F -25 °F -2 °F (2007)
Min Temperature -32 °F -38 °F -49 °F (2000)
Degree Days  
Heating Degree Days 88    
Moisture  
Dew Point -36 °F    
Average Humidity 63    
Maximum Humidity 69    
Minimum Humidity 45    
Precipitation  
Precipitation 0.00 in 0.00 in - ()
Sea Level Pressure  
Sea Level Pressure 29.92 in    
Wind  
Wind Speed 1 mph ()    
Max Wind Speed 6 mph    
Max Gust Speed -    
Visibility 12.8 miles    
Events Snow    
Averages and records for this station are not official NWS values.
T = Trace of Precipitation, MM = Missing Value Source: Averaged Metar Reports

Daily Weather History Graph

Daily Weather History Graph

Search for Another Location

Airport or City:

Trip Planner

Search our weather history database for the weather conditions in past years. The results will help you decide how hot, cold, wet, or windy it might be!

Date:

Astronomy

Dec. 31, 1969 Rise Set
Actual Time Sun does not set Sun does not set
Civil Twilight Sun does not set Sun does not set
Nautical Twilight 11:02 AM CST 12:07 PM CST
Astronomical Twilight 7:16 AM CST 3:52 PM CST
Moon No Moon Rise 11:59 AM CST (12/6)
Length of Visible Light 0h 00m
Length of Day
0h 00m
Waning Gibbous, 49% of the Moon is Illuminated
Dec 6
Waning Gibbous
Dec 13
New
Dec 19
First Quarter
Dec 28
Full
Jan 4
Last Quarter

Hourly Weather History & Observations

Time (CST) Temp. Windchill Dew Point Humidity Pressure Visibility Wind Dir Wind Speed Gust Speed Precip Events Conditions
12:00 AM -32 °F - -40 °F 48% 30.04 in 15 mi Calm Calm - - Snow Snow
12:00 AM -31.0 °F - -40.0 °F 62% 30.04 in 15.0 mi West 2.3 mph - N/A   Clear
1:00 AM -31.0 °F - -40.0 °F 62% 30.03 in 15.0 mi West 2.3 mph - N/A   Partly Cloudy
2:00 AM -31.0 °F - -38.2 °F 68% 30.02 in 15.0 mi Calm Calm - N/A   Partly Cloudy
3:00 AM -31.0 °F - -38.2 °F 68% 30.01 in 15.0 mi Calm Calm - N/A   Partly Cloudy
4:00 AM -29.2 °F - -38.2 °F 62% 29.99 in 15.0 mi NW 2.3 mph - N/A   Partly Cloudy
5:00 AM -32.8 °F - -40.0 °F 68% 29.98 in 15.0 mi Calm Calm - N/A   Partly Cloudy
6:00 AM -31 °F - -39 °F 45% 29.95 in 10 mi Calm Calm - - Snow Snow
6:00 AM -31.0 °F - -40.0 °F 62% 29.95 in 10.0 mi Calm Calm - N/A   Clear
7:00 AM -29.2 °F -46.2 °F -38.2 °F 62% 29.93 in 5.0 mi West 5.8 mph - N/A   Ice Crystals
8:00 AM -31.0 °F - -40.0 °F 62% 29.90 in 5.0 mi Calm Calm - N/A   Ice Crystals
9:00 AM -20.2 °F -33.5 °F -29.2 °F 63% 29.88 in 15.0 mi NNW 4.6 mph - N/A   Clear
10:00 AM -31.0 °F - -40.0 °F 62% 29.88 in 10.0 mi Calm Calm - N/A   Clear
11:00 AM -27.4 °F - -34.6 °F 69% 29.87 in 8.0 mi Calm Calm - N/A   Clear
12:00 PM -28 °F - -37 °F 45% 29.87 in 7 mi SE 2.3 mph - - Snow Snow
12:00 PM -27.4 °F - -36.4 °F 62% 29.87 in 8.0 mi SE 2.3 mph - N/A   Clear
1:00 PM -25.6 °F - -32.8 °F 69% 29.86 in 15.0 mi Calm Calm - N/A   Clear
2:00 PM -25.6 °F - -32.8 °F 69% 29.87 in 15.0 mi NE 2.3 mph - N/A   Clear
3:00 PM -23.8 °F -35.0 °F -31.0 °F 69% 29.87 in 15.0 mi South 3.5 mph - N/A   Clear
4:00 PM -23.8 °F - -31.0 °F 69% 29.88 in 15.0 mi East 2.3 mph - N/A   Clear
5:00 PM -25.6 °F -37.1 °F -32.8 °F 69% 29.87 in 15.0 mi East 3.5 mph - N/A   Clear
6:00 PM -25 °F - -32 °F 51% 29.88 in 15 mi Calm Calm - - Snow Snow
6:00 PM -25.6 °F - -32.8 °F 69% 29.88 in 15.0 mi Calm Calm - N/A   Clear
7:00 PM -27.4 °F - -36.4 °F 62% 29.90 in 15.0 mi South 2.3 mph - N/A   Clear
8:00 PM -29.2 °F - -36.4 °F 68% 29.90 in 15.0 mi SE 2.3 mph - N/A   Clear
9:00 PM -27.4 °F - -34.6 °F 69% 29.89 in 15.0 mi ENE 2.3 mph - N/A   Clear